Simultaneous Nadir Overpasses (SNOs) Predictions

Prediction of SNOs between GOES-16 and NOAA-19 Satellite Orbit:

Table of predicted SNOs for the next 14.0 days since TLE Epoch: 10/3/2020
Index Date Time (GOES-16) GOES-16 Lat,Lon NOAA-19 Lat,Lon Distance(km) Time Diff (sec)
1 10/03/2020 23:23:52 0.04, -75.21 -0.65, -78.17 337.89 80
2 10/04/2020 23:12:11 0.04, -75.22 0.04, -75.32 10.14 80
3 10/05/2020 23:03:08 0.04, -75.24 0.67, -72.45 317.95 80
4 10/08/2020 11:23:57 -0.04, -75.30 0.45, -77.37 237.19 80
5 10/09/2020 11:09:35 -0.03, -75.31 -0.20, -74.51 90.98 80
6 10/10/2020 10:57:53 -0.03, -75.33 -0.90, -71.66 419.12 80
7 10/11/2020 23:30:42 0.03, -75.34 -0.93, -79.51 475.91 80
8 10/12/2020 23:18:59 0.03, -75.36 -0.29, -76.64 147.50 80
9 10/13/2020 23:09:58 0.03, -75.38 0.40, -73.79 181.13 80
10 10/16/2020 11:30:45 -0.03, -75.46 0.72, -78.71 371.33 80
